sat.trackr.live / text

‹ back to catalog

STARLINK-31165

NORAD 58748 · 2024-005W

PAYLOAD ACTIVE UNKNOWN

§ Identity

Operator
Country
US
Launch date
2024-01-07
Launch site
AFETR
Launch vehicle
Mass (kg)
RCS (m²)

Purposes: comms

External: N2YO · Heavens-Above · Gunter

§ Orbital elements

Epoch: 2026-09-20T13:12:40.203648Z

Period
94.27 min
Inclination
43.0049°
Eccentricity
0.0001949
Mean motion
15.27581332 rev/d
Perigee alt
481.7 km
Apogee alt
484.4 km
Semi-major
6,861.2 km
B*
3.0285e-5
RAAN
199.4124°
Arg perigee
260.5936°
Mean anomaly
99.4695°
Rev number
15,024

§ Raw data

STARLINK-311651 58748U 24005W   26263.55046532  .00000571  00000+0  30285-4 0  99962 58748  43.0049 199.4124 0001949 260.5936  99.4695 15.27581332150249

JSON: /api/v1/satellites/58748 · /tle

For live sub-satellite position, see the globe view (requires WebGL).

§ Visibility from observer

Set your observer location to see the next 7 days of passes ≥ 10°. The values pass through the URL so the page stays shareable.

No JS? Fill the form by hand. The geolocation button needs JavaScript.